sat.trackr.live / text

‹ back to catalog

STARLINK-34854

NORAD 65337 · 2025-189Q

PAYLOAD ACTIVE UNKNOWN

§ Identity

Operator
Country
US
Launch date
2025-08-27
Launch site
AFETR
Launch vehicle
Mass (kg)
RCS (m²)

Purposes: comms

External: N2YO · Heavens-Above · Gunter

§ Orbital elements

Epoch: 2026-09-20T13:51:49.297824Z

Period
94.01 min
Inclination
53.1613°
Eccentricity
0.0001024
Mean motion
15.31726472 rev/d
Perigee alt
470.0 km
Apogee alt
471.4 km
Semi-major
6,848.8 km
B*
4.7248e-4
RAAN
20.1833°
Arg perigee
106.1554°
Mean anomaly
253.9560°
Rev number
6,090

§ Raw data

STARLINK-348541 65337U 25189Q   26263.57765391  .00014337  00000+0  47248-3 0  99962 65337  53.1613  20.1833 0001024 106.1554 253.9560 15.31726472 60904

JSON: /api/v1/satellites/65337 · /tle

For live sub-satellite position, see the globe view (requires WebGL).

§ Visibility from observer

Set your observer location to see the next 7 days of passes ≥ 10°. The values pass through the URL so the page stays shareable.

No JS? Fill the form by hand. The geolocation button needs JavaScript.